Home > Weather > Dayton > Past weeks

Flag for USA Past Weather in Dayton, Ohio, USA — Yesterday and Last 2 Weeks

Now
81 °F

Clear.


Feels Like: 87 °F
Forecast: 74 / 93 °F
Wind: 1 mph from Northeast

Location: Dayton / Wright-Patterson Air Force Base

Current Time: Jul 23, 2016 at 11:14:05 PM

Latest Report: Jul 23, 2016 at 9:58 PM


Visibility: 10 mi

Pressure: 29.98 "Hg

Humidity: 80%

Dew Point: 75 °F

Location of DaytonLocation

Past Weather in Dayton — Graph

°F

Dayton Temperature Yesterday

Maximum temperature yesterday: 83 °F (at 6:58 PM)
Minimum temperature yesterday: 70 °F (at 2:58 AM)
Average temperature yesterday: 77 °F

High & Low Weather Summary for the Past Weeks

 TemperatureHumidityPressure
High92 °F (Jul 13, 4:58 PM)100% (Jul 10, 6:58 AM)30.27 "Hg (Jul 10, 6:58 AM)
Low59 °F (Jul 10, 6:58 AM)41% (Jul 10, 4:58 PM)29.85 "Hg (Jul 8, 9:58 PM)
Average77 °F74%30.05 "Hg
* Reported Jul 8 9:58 PM — Jul 23 9:58 PM, Dayton, Weather by CustomWeather, © 2016

Note: Actual official high and low records may vary slightly from our data, if they occured in-between our weather recording intervals... More about our weather records

Advertising

Dayton Weather History for the Previous 24 Hours

Scroll right to see more
 ConditionsComfort  
Time TempWeatherWind HumidityBarometerVisibility
9:58 PM
Sat, Jul 23
81 °FClear.1 mph80%29.98 "Hg10 mi
8:58 PM85 °FSunny.5 mph70%29.97 "Hg10 mi
7:58 PM88 °FWarm.2 mph59%29.95 "Hg10 mi
6:58 PM89 °FScattered clouds.3 mph56%29.94 "Hg10 mi
5:58 PM90 °FPartly sunny.7 mph52%29.95 "Hg10 mi
4:58 PM91 °FPassing clouds.10 mph53%29.98 "Hg10 mi
3:58 PM90 °FPassing clouds.7 mph54%29.98 "Hg10 mi
2:58 PM89 °FPassing clouds.8 mph61%30.00 "Hg10 mi
1:58 PM87 °FScattered clouds.6 mph65%30.01 "Hg10 mi
12:58 PM87 °FScattered clouds.3 mph67%30.01 "Hg10 mi
11:58 AM85 °FPassing clouds.5 mph70%30.01 "Hg10 mi
10:58 AM83 °FPassing clouds.1 mph77%30.02 "Hg10 mi
9:58 AM80 °FSunny.1 mph86%30.02 "Hg10 mi
8:58 AM78 °FSunny.3 mph94%30.02 "Hg10 mi
7:58 AM74 °FSunny.No wind100%30.01 "Hg7 mi
6:58 AM70 °FFog.1 mph100%30.01 "Hg6 mi
5:58 AM70 °FFog.No wind100%30.01 "Hg5 mi
4:58 AM72 °FClear.2 mph100%30.01 "Hg7 mi
3:58 AM73 °FClear.3 mph100%30.01 "Hg10 mi
2:58 AM74 °FClear.1 mph96%30.01 "Hg10 mi
1:58 AM74 °FPassing clouds.2 mph98%30.01 "Hg10 mi
12:58 AM74 °FClear.6 mph94%30.02 "Hg10 mi
11:58 PM
Fri, Jul 22
75 °FClear.5 mph92%30.02 "Hg10 mi
Weather by CustomWeather, © 2016

See weather overviewHow to use our weather pages